Vertical_Velocity
-4 -2 -4 3 -1 -1 0 -0 -1 0 1 1 -2 -2 -3 2 -0 -2 -4 -4 -2 -3 -2 2 -1 -2 -6 -6 -1 -3 -2 -2 6 8 2 0 6 1 -4 -1 -3 -1 0
-1 -2 0 -3 14 1 -1 1 2 2 4 2 1 -0 0 0 -1 -2 -2 -0 2 0 1 1 -4 -1 -7 -4 -3 2 1 -4 -2 14 -4 -4 2 -5 -2 2 -5 1 -1
-1 -1 1 2 1 1 2 -6 -3 -3 -2 -2 -2 1 -1 -0 -2 -3 -2 -4 -1 -1 -4 -3 -9 -2 -4 -7 -7 -7 -4 -4 -4 -2 14 -3 -4 -1 1 0 1 2 -0
2 1 1 -0 1 78 19 25 4 -5 6 3 -2 -3 -2 -1 -1 -5 -6 -2 -5 -3 -2 -1 -6 -3 -3 -7 -3 -9 -10 2 -0 -6 3 0 -1 0 -3 -3 6 -10 -1
1 -2 0 4 3 24 9 15 -23 -5 5 2 1 -2 -1 -3 -1 -4 -2 -4 -2 -0 -2 -5 -9 -3 -2 -0 -4 -5 -4 -4 -6 -6 2 -1 -4 2 -3 4 -4 -0 9
-3 4 6 -2 10 86 51 17 -17 -11 4 0 -1 -1 -2 -1 -1 -4 -5 2 1 -3 -1 -7 -6 -6 -2 -4 -4 1 -5 -6 -1 -4 5 -0 -0 -3 -2 -1 -7 -0 -0
0 6 -3 -1 5 3 19 -0 -22 7 -0 5 -7 1 2 2 3 -1 -2 -2 3 -1 -1 -3 -3 -2 -3 1 -2 -6 -6 -0 -4 4 2 -2 3 -8 -6 -2 -4 -3 -7
-2 -1 -4 -0 -0 114 4 -5 -1 4 9 0 0 1 -1 5 2 -6 3 -7 -4 -4 -1 -1 -5 -0 -6 -4 -1 2 -3 -8 -5 -2 -3 4 -3 -2 -8 -7 -0 -4 2
0 -0 4 1 -13 1 32 -6 7 -0 -1 -3 5 -1 2 24 4 -1 -7 0 -0 3 -6 -1 -2 2 -2 -0 -1 -4 -1 -10 -3 -1 1 0 -0 1 -8 -4 -0 -4 2
3 -0 0 0 3 2 0 4 4 0 0 4 9 -4 -9 23 7 14 7 -12 -4 -1 -8 -5 -3 2 -0 1 -6 -0 1 -5 -3 0 -0 -1 -6 -8 -3 -8 -12 -7 -4
4 1 6 -0 -1 -5 0 2 0 1 5 -0 9 3 -4 43 10 8 -3 -7 -7 -0 -3 -1 -5 -4 -2 -5 -3 -0 1 -0 -1 0 4 -0 -0 0 -1 -1 -8 -11 -1
0 3 18 7 3 1 2 -0 3 5 10 6 2 -4 3 7 1 -3 -11 0 2 1 7 -4 -5 -2 -5 -4 -1 -1 1 -2 2 -1 2 -1 -0 1 1 1 -5 -5 -0
-5 -6 -6 -0 0 -5 6 6 6 1 -6 -4 2 3 1 7 8 -1 7 1 -1 4 -1 -7 -1 -4 0 -6 -1 -0 -2 -0 3 1 2 1 -1 -0 2 4 -2 -6 -0
-4 -7 -1 -3 -2 -7 -1 -2 1 3 -3 4 8 -2 -4 6 -2 2 0 2 -0 -1 -3 -1 -1 -2 -1 -3 -1 1 1 0 -0 1 2 -0 -2 0 0 -4 -1 -1 6
3 -1 -5 -1 -7 0 0 -4 16 18 5 -1 -2 0 -4 -0 3 3 -0 1 3 2 -2 1 -0 -3 -0 -1 0 0 -1 -2 -0 1 2 1 -0 0 -2 -4 -0 2 8
-0 2 -5 3 2 0 -2 -3 5 0 4 2 2 -2 1 -3 -0 -1 -7 -4 -2 -0 2 -0 -3 -2 -0 -0 -0 -2 0 -3 -1 -1 1 2 2 0 0 -3 -6 7 1
-3 -2 -4 -8 -5 1 4 -1 0 6 -0 -0 -0 0 -1 4 -2 -2 -6 1 2 -0 -0 -1 1 2 -0 -1 -0 -1 0 1 -1 -1 -0 0 0 -1 2 -0 -5 3 8
2 0 2 -4 1 3 -1 1 2 2 2 -2 -2 -3 1 1 -1 2 1 0 -2 -1 -0 3 2 2 2 -1 1 2 1 -0 0 0 0 0 -0 2 -1 -1 -1 -2 1
-2 -1 3 6 3 3 2 -2 -0 -4 -3 -1 3 0 -0 1 0 1 0 -3 -2 -3 -1 2 -1 -0 2 -1 2 1 1 -2 -1 0 1 0 -0 0 -0 1 2 -3 -6
-1 4 2 5 -0 1 -2 -4 -4 3 -5 -2 -1 -3 -1 -1 1 -3 -6 0 -2 -0 3 4 1 1 2 2 1 0 0 -2 -1 -0 0 0 0 1 0 -1 1 -2 -6
-9 0 4 0 -0 -2 2 0 1 3 1 -1 0 1 -2 -6 -2 2 1 1 1 1 2 2 3 2 1 1 0 0 0 -1 -1 -1 0 0 -0 -0 1 1 3 -3 1
4 -2 -1 -3 -3 -2 -7 -4 -4 -3 -3 -1 -2 -1 -1 -3 -3 1 3 1 0 1 2 2 3 1 1 1 1 -0 0 -0 1 -1 -0 1 1 -1 -0 2 0 2 -1
1 2 3 -0 1 -2 -3 -1 1 -2 -1 1 -2 2 -0 -1 1 2 1 -1 -1 1 2 1 -0 -0 0 0 0 0 0 -1 -1 -0 -3 -2 -0 2 -2 1 2 -0 -0
2 3 1 0 -4 -3 -1 2 4 2 -2 -3 -1 -0 -1 1 -1 -0 1 1 0 0 1 0 -1 -1 -1 -0 -1 0 -0 -0 -1 -1 -1 -2 -2 -1 -0 -2 0 -0 -2
2 0 -2 -3 -2 -0 0 -1 2 2 -0 1 -2 -3 -2 -2 -3 -2 -3 -2 -0 -2 -2 -1 0 1 -0 -1 -1 -0 -1 -1 -0 -1 -1 -2 -1 -1 2 1 -2 0 4
-1 -2 -2 -4 -1 -2 -3 -3 -2 -2 -0 -3 -3 -2 -2 -3 -3 -3 -2 -2 1 -1 -0 1 1 1 -1 -1 -1 -1 -1 -0 -0 -1 -2 -2 -1 -1 1 1 1 -1 -2
Height
5882 5879 5877 5876 5874 5871 5869 5867 5865 5865 5864 5862 5860 5858 5856 5854 5852 5850 5848 5846 5842 5839 5836 5833 5830 5827 5822 5817 5813 5808 5803 5797 5794 5791 5788 5783 5779 5775 5773 5770 5769 5770 5772
5876 5873 5872 5868 5869 5864 5862 5860 5857 5856 5856 5854 5853 5851 5849 5847 5844 5842 5840 5838 5834 5831 5827 5824 5819 5815 5810 5806 5803 5798 5793 5788 5782 5779 5774 5770 5764 5759 5758 5756 5755 5755 5757
5870 5866 5864 5862 5859 5857 5854 5852 5851 5850 5849 5847 5845 5843 5841 5838 5836 5835 5832 5828 5825 5822 5819 5817 5812 5805 5800 5796 5792 5788 5781 5776 5768 5765 5763 5757 5754 5746 5746 5744 5743 5742 5741
5864 5861 5858 5855 5851 5853 5844 5841 5844 5841 5840 5839 5837 5835 5833 5829 5828 5826 5823 5820 5817 5814 5810 5807 5799 5793 5789 5785 5780 5775 5769 5762 5754 5751 5748 5744 5740 5736 5733 5732 5732 5728 5729
5859 5857 5854 5849 5841 5837 5830 5826 5833 5832 5830 5829 5829 5827 5823 5821 5819 5817 5815 5811 5807 5804 5801 5795 5790 5784 5779 5774 5769 5763 5757 5749 5743 5738 5735 5730 5726 5722 5719 5719 5718 5717 5716
5852 5851 5846 5840 5835 5829 5814 5805 5820 5821 5822 5821 5820 5817 5814 5810 5808 5808 5805 5802 5799 5795 5790 5784 5780 5772 5768 5762 5756 5750 5745 5738 5730 5724 5721 5717 5713 5709 5707 5704 5703 5702 5702
5845 5842 5838 5832 5827 5824 5821 5813 5810 5811 5813 5815 5812 5807 5804 5800 5799 5797 5795 5792 5788 5783 5779 5774 5768 5761 5755 5750 5744 5737 5731 5725 5717 5711 5709 5706 5702 5698 5695 5690 5685 5683 5681
5837 5832 5827 5823 5820 5805 5814 5807 5803 5804 5805 5804 5800 5797 5794 5791 5787 5786 5783 5782 5779 5775 5769 5762 5756 5749 5743 5738 5732 5726 5720 5712 5704 5700 5697 5694 5691 5688 5682 5676 5669 5665 5664
5827 5825 5820 5815 5812 5809 5802 5800 5798 5796 5795 5790 5789 5783 5779 5776 5774 5773 5772 5772 5770 5764 5758 5750 5745 5738 5732 5726 5722 5716 5709 5703 5696 5693 5689 5683 5679 5677 5671 5663 5653 5646 5644
5817 5815 5811 5807 5802 5798 5795 5792 5789 5787 5783 5780 5776 5773 5767 5766 5762 5763 5761 5760 5758 5753 5745 5738 5734 5729 5723 5717 5712 5706 5700 5694 5688 5686 5682 5674 5669 5664 5657 5650 5639 5632 5630
5806 5804 5801 5797 5794 5790 5786 5780 5778 5776 5774 5771 5769 5767 5761 5751 5756 5753 5749 5745 5745 5740 5732 5728 5722 5718 5713 5707 5702 5695 5690 5685 5680 5678 5675 5668 5662 5656 5651 5644 5633 5623 5618
5795 5790 5790 5788 5783 5780 5777 5772 5769 5767 5765 5762 5759 5757 5755 5754 5748 5742 5738 5736 5732 5727 5720 5717 5713 5708 5702 5696 5691 5685 5681 5676 5672 5669 5666 5660 5656 5651 5645 5636 5624 5618 5611
5781 5779 5776 5772 5771 5769 5767 5763 5760 5757 5756 5751 5749 5745 5743 5740 5736 5732 5730 5725 5720 5713 5711 5707 5702 5697 5691 5686 5680 5676 5671 5667 5663 5659 5656 5653 5649 5644 5638 5630 5619 5610 5606
5769 5765 5763 5761 5758 5757 5755 5752 5749 5745 5744 5743 5741 5737 5732 5727 5723 5721 5718 5712 5707 5705 5700 5695 5692 5688 5682 5677 5672 5667 5663 5659 5655 5652 5649 5647 5643 5638 5632 5624 5615 5606 5603
5758 5753 5751 5751 5748 5747 5746 5743 5739 5736 5732 5731 5727 5725 5721 5717 5714 5710 5706 5703 5698 5693 5689 5685 5682 5678 5673 5669 5665 5660 5656 5653 5649 5646 5644 5641 5637 5633 5627 5621 5612 5605 5600
5742 5741 5742 5741 5739 5737 5734 5731 5729 5723 5720 5717 5714 5711 5707 5705 5701 5698 5695 5691 5687 5683 5679 5675 5672 5669 5666 5662 5658 5654 5650 5647 5643 5641 5638 5636 5632 5629 5624 5617 5610 5604 5598
5733 5730 5727 5725 5725 5723 5723 5720 5717 5715 5710 5707 5704 5699 5697 5694 5689 5685 5682 5679 5675 5672 5668 5665 5663 5661 5658 5654 5650 5647 5644 5641 5638 5635 5632 5630 5627 5624 5620 5615 5609 5602 5596
5722 5719 5715 5714 5712 5710 5707 5704 5702 5699 5696 5694 5690 5688 5685 5682 5677 5673 5669 5665 5663 5661 5658 5656 5654 5652 5650 5646 5643 5641 5638 5635 5632 5629 5627 5625 5622 5619 5616 5612 5608 5601 5595
5708 5706 5704 5701 5699 5697 5695 5693 5690 5687 5685 5681 5678 5675 5672 5668 5665 5662 5659 5656 5654 5651 5649 5647 5646 5643 5640 5638 5636 5634 5632 5629 5626 5623 5621 5620 5617 5615 5613 5609 5606 5601 5597
5697 5694 5692 5691 5690 5686 5683 5680 5676 5673 5668 5666 5664 5661 5659 5657 5654 5651 5648 5645 5643 5642 5639 5638 5637 5634 5631 5630 5628 5627 5625 5623 5621 5618 5616 5614 5613 5611 5609 5606 5603 5601 5597
5683 5682 5681 5680 5677 5674 5672 5668 5665 5661 5659 5655 5652 5650 5646 5642 5640 5638 5637 5636 5634 5632 5631 5629 5628 5625 5623 5622 5621 5620 5619 5617 5615 5614 5612 5610 5608 5606 5604 5603 5601 5598 5594
5670 5668 5667 5665 5663 5661 5658 5655 5652 5650 5648 5646 5643 5639 5637 5634 5632 5629 5628 5628 5626 5624 5622 5620 5619 5617 5616 5615 5615 5614 5613 5611 5609 5608 5607 5605 5604 5602 5600 5599 5597 5597 5596
5658 5656 5655 5654 5653 5650 5647 5645 5643 5641 5639 5637 5635 5632 5629 5626 5624 5621 5621 5619 5618 5616 5614 5613 5612 5612 5610 5609 5608 5607 5606 5605 5603 5601 5601 5600 5599 5598 5596 5595 5595 5595 5594
5646 5644 5644 5644 5643 5640 5638 5636 5635 5634 5631 5629 5627 5624 5621 5618 5615 5613 5612 5611 5610 5609 5608 5606 5605 5604 5603 5602 5601 5600 5599 5597 5595 5594 5593 5592 5593 5592 5591 5589 5588 5589 5590
5637 5637 5637 5636 5634 5631 5631 5629 5627 5625 5623 5621 5618 5615 5612 5608 5606 5604 5603 5602 5602 5601 5601 5599 5598 5597 5596 5595 5594 5592 5591 5589 5588 5586 5585 5584 5584 5585 5585 5585 5583 5584 5584
5630 5628 5627 5626 5625 5622 5621 5620 5618 5616 5615 5612 5609 5606 5603 5600 5598 5597 5596 5595 5594 5594 5593 5592 5591 5590 5589 5588 5586 5585 5584 5583 5581 5580 5579 5577 5577 5577 5578 5579 5579 5578 5578